TimeEST,TemperatureF,Dew PointF,Humidity,Sea Level PressureIn,VisibilityMPH,Wind Direction,Wind SpeedMPH,Gust SpeedMPH,PrecipitationIn,Events,Conditions,WindDirDegrees,DateUTC
12:53 AM,19.9,12.9,74,30.09,10.0,WSW,4.6,-,N/A,,Partly Cloudy,250,2013-03-04 05:53:00
1:53 AM,21.0,12.9,71,30.11,10.0,West,5.8,-,N/A,,Partly Cloudy,260,2013-03-04 06:53:00
2:53 AM,19.9,12.0,71,30.10,10.0,WNW,4.6,-,N/A,,Partly Cloudy,300,2013-03-04 07:53:00
3:53 AM,19.0,10.9,71,30.10,10.0,Calm,Calm,-,N/A,,Clear,0,2013-03-04 08:53:00
4:53 AM,18.0,10.9,74,30.12,10.0,WNW,4.6,-,N/A,,Clear,290,2013-03-04 09:53:00
5:53 AM,18.0,12.0,78,30.15,10.0,West,6.9,-,N/A,,Clear,280,2013-03-04 10:53:00
6:53 AM,17.1,10.9,77,30.16,10.0,WNW,5.8,-,N/A,,Clear,290,2013-03-04 11:53:00
7:53 AM,19.0,12.0,74,30.17,10.0,WNW,5.8,-,N/A,,Clear,290,2013-03-04 12:53:00
8:53 AM,21.9,14.0,72,30.17,10.0,NW,4.6,-,N/A,,Clear,310,2013-03-04 13:53:00
9:53 AM,25.0,15.1,66,30.17,10.0,Variable,3.5,-,N/A,,Partly Cloudy,0,2013-03-04 14:53:00
10:53 AM,28.0,15.1,58,30.17,10.0,WSW,6.9,-,N/A,,Partly Cloudy,250,2013-03-04 15:53:00
11:53 AM,28.9,16.0,58,30.16,10.0,West,4.6,-,N/A,,Partly Cloudy,270,2013-03-04 16:53:00
12:53 PM,30.9,16.0,54,30.14,10.0,Calm,Calm,-,N/A,,Scattered Clouds,0,2013-03-04 17:53:00
1:53 PM,33.1,14.0,46,30.13,10.0,West,6.9,-,N/A,,Scattered Clouds,280,2013-03-04 18:53:00
2:53 PM,35.1,15.1,44,30.11,10.0,SW,3.5,-,N/A,,Mostly Cloudy,220,2013-03-04 19:53:00
3:53 PM,36.0,12.9,39,30.11,10.0,Variable,3.5,-,N/A,,Mostly Cloudy,0,2013-03-04 20:53:00
4:53 PM,37.0,12.9,37,30.11,10.0,Variable,5.8,-,N/A,,Scattered Clouds,0,2013-03-04 21:53:00
5:53 PM,34.0,14.0,44,30.11,10.0,WSW,4.6,-,N/A,,Scattered Clouds,250,2013-03-04 22:53:00
6:53 PM,32.0,15.1,50,30.11,10.0,WSW,3.5,-,N/A,,Scattered Clouds,240,2013-03-04 23:53:00
7:53 PM,30.0,16.0,56,30.11,10.0,West,4.6,-,N/A,,Scattered Clouds,260,2013-03-05 00:53:00
8:53 PM,28.9,16.0,58,30.12,10.0,Calm,Calm,-,N/A,,Scattered Clouds,0,2013-03-05 01:53:00
9:53 PM,28.9,19.0,67,30.13,10.0,ENE,3.5,-,N/A,,Mostly Cloudy,60,2013-03-05 02:53:00
10:53 PM,28.0,18.0,66,30.13,10.0,NE,3.5,-,N/A,,Mostly Cloudy,50,2013-03-05 03:53:00
11:53 PM,27.0,18.0,69,30.14,10.0,NE,4.6,-,N/A,,Scattered Clouds,40,2013-03-05 04:53:00